CDT,Max TemperatureF,Mean TemperatureF,Min TemperatureF,Max Dew PointF,MeanDew PointF,Min DewpointF,Max Humidity, Mean Humidity, Min Humidity, Max Sea Level PressureIn, Mean Sea Level PressureIn, Min Sea Level PressureIn, Max VisibilityMiles, Mean VisibilityMiles, Min VisibilityMiles, Max Wind SpeedMPH, Mean Wind SpeedMPH, Max Gust SpeedMPH,PrecipitationIn, CloudCover, Events, WindDirDegrees
2013-7-1,86,74,63,59,55,49,79,49,27,30.01,29.97,29.92,10,10,7,12,4,16,0.00,,,8
2013-7-2,86,74,62,59,52,42,85,49,22,30.08,30.04,30.00,10,10,7,9,1,18,0.00,,,10
2013-7-3,90,72,56,58,51,37,91,51,17,30.09,30.04,29.98,10,10,7,9,0,,0.00,,,55
2013-7-4,90,76,62,67,59,50,88,58,27,30.06,30.01,29.96,10,10,5,9,1,,0.00,,,85
2013-7-5,94,78,62,64,57,49,91,54,22,30.05,29.99,29.92,10,9,2,9,1,,0.00,,,104
2013-7-6,94,79,65,67,59,52,85,53,24,30.02,29.97,29.91,10,10,5,10,2,,0.00,,,123
2013-7-7,96,82,68,69,64,54,89,57,25,30.05,30.00,29.96,10,10,10,14,3,23,0.00,,,131
2013-7-8,95,82,71,71,67,61,91,63,33,30.13,30.08,30.04,10,10,5,12,4,,0.00,,,164
2013-7-9,99,85,72,69,62,50,81,49,19,30.16,30.09,30.02,10,10,10,14,5,18,0.00,,,219
2013-7-10,100,88,77,69,64,57,70,48,24,30.09,30.02,29.92,10,10,10,9,3,,0.00,,,229
2013-7-11,97,84,72,72,68,65,90,67,36,30.04,29.97,29.92,10,9,1,18,2,30,0.54,,,201
2013-7-12,96,82,68,69,66,61,92,62,33,30.02,29.97,29.92,10,9,1,7,1,,0.02,,,85
2013-7-13,90,79,68,66,58,49,82,50,25,30.05,29.99,29.93,10,10,7,8,1,,0.00,,,52
2013-7-14,78,74,71,68,63,60,86,69,58,30.03,29.98,29.93,10,10,5,7,2,,0.04,,,59
2013-7-15,83,76,69,69,67,66,91,82,59,30.15,30.07,29.97,10,9,3,21,3,24,0.37,,,82
2013-7-16,91,80,68,72,67,63,91,71,39,30.21,30.16,30.11,10,10,5,10,2,20,0.01,,,81
2013-7-17,93,84,74,70,66,60,84,60,33,30.27,30.21,30.15,10,10,10,14,4,17,0.00,,,108
2013-7-18,95,82,70,70,65,57,90,61,28,30.20,30.13,30.02,10,10,7,17,1,31,0.00,,,97
2013-7-19,81,76,70,74,70,66,90,82,70,30.10,30.04,29.98,10,9,0,10,1,,0.82,,,166
2013-7-20,91,82,72,71,68,62,91,67,37,30.01,29.96,29.87,10,9,1,9,1,,0.00,,,183
2013-7-21,94,82,70,72,67,62,91,65,36,29.98,29.93,29.88,10,9,3,12,4,16,0.00,,,190
2013-7-22,95,86,76,72,68,63,85,61,35,30.02,29.96,29.90,10,10,10,15,5,24,0.00,,,210
2013-7-23,95,86,78,72,70,68,78,61,41,30.02,29.94,29.86,10,10,7,16,7,23,0.00,,,211
2013-7-24,86,79,72,70,68,65,88,70,50,30.03,29.96,29.88,10,10,5,18,3,26,0.03,,,316
2013-7-25,93,80,66,70,65,59,92,64,31,30.09,30.04,29.99,10,9,2,8,1,,0.00,,,66
2013-7-26,90,81,72,74,70,64,87,74,45,30.05,29.98,29.86,10,10,1,14,4,18,0.13,,,108
2013-7-27,88,78,69,68,64,60,88,68,40,30.02,29.98,29.93,10,10,7,12,3,,0.01,,,18
2013-7-28,92,78,64,68,62,56,92,61,29,30.04,29.99,29.93,10,9,1,13,3,18,0.00,,,105
2013-7-29,95,83,72,72,66,60,85,58,33,30.07,30.02,29.98,10,10,7,14,3,22,0.00,,,173
2013-7-30,94,85,76,69,65,59,75,53,30,30.13,30.05,29.99,10,10,7,17,6,23,0.00,,,201
2013-7-31,96,87,78,73,65,61,72,51,31,30.09,30.02,29.94,10,10,10,12,2,18,0.00,,,220